User: anonymous   Login
Location: Unspecified
(0.0000°N, 0.0000°E)
Time: 10:07:36
(UTC+00:00)
Language:

STARLINK-2063 - Orbit

View from above orbital plane
View from above orbital plane
View from above satellite
View from above satellite

Ground track
Ground track

The orbit is defined by the following mean orbital elements,

1 48553U          26145.22587708 +.00000000 +00000-0 +31125-4 0 00001
2 48553  53.1595 130.8311 0001497  92.8110 267.3063 15.31702361    00
Epoch (UTC): 25 May 2026 05:25:15
Eccentricity: 0.0001497
inclination: 53.1595°
perigee height: 470 km
apogee height: 472 km
right ascension of ascending node: 130.8311°
argument of perigee: 92.8110°
revolutions per day: 15.31702361
mean anomaly at epoch: 267.3063°

The dashed part of the orbit path shows where the satellite is in the earth's shadow,  

DLR